| time (UTC) | temp C | wind direction | speed KPH | gust KPH | rain 1hr cm | rain 24hr cm | rain mn cm | humidity % | barometer mb |
| 20260502130658 | 7 | 123 | 0.0 | 0.0 | 0.00 | 0.00 | 0.00 | 41 | 1018.8 |
| 20260502130156 | 6 | 125 | 0.0 | 0.0 | 0.00 | 0.00 | 0.00 | 42 | 1018.8 |
| 20260502123642 | 6 | 147 | 1.6 | 1.6 | 0.00 | 0.00 | 0.00 | 44 | 1018.8 |
| 20260502123139 | 6 | 190 | 3.2 | 3.2 | 0.00 | 0.00 | 0.00 | 44 | 1018.4 |
| 20260502122635 | 6 | 158 | 1.6 | 1.6 | 0.00 | 0.00 | 0.00 | 44 | 1018.4 |
| 20260502122132 | 6 | 137 | 0.0 | 0.0 | 0.00 | 0.00 | 0.00 | 43 | 1018.4 |
| 20260502121630 | 6 | 144 | 1.6 | 1.6 | 0.00 | 0.00 | 0.00 | 44 | 1018.6 |
| 20260502121127 | 5 | 171 | 3.2 | 3.2 | 0.00 | 0.00 | 0.00 | 46 | 1018.4 |
| 20260502120623 | 5 | 122 | 0.0 | 0.0 | 0.00 | 0.00 | 0.00 | 46 | 1018.5 |
| 20260502120120 | 5 | 161 | 1.6 | 3.2 | 0.00 | 0.00 | 0.00 | 46 | 1018.4 |
| 20260502115618 | 6 | 120 | 0.0 | 0.0 | 0.00 | 0.00 | 0.00 | 46 | 1018.4 |
| 20260502115114 | 5 | 117 | 0.0 | 0.0 | 0.00 | 0.00 | 0.00 | 49 | 1018.4 |
| 20260502114610 | 5 | 120 | 0.0 | 0.0 | 0.00 | 0.00 | 0.00 | 47 | 1018.4 |
| 20260502114108 | 5 | 126 | 1.6 | 1.6 | 0.00 | 0.00 | 0.00 | 47 | 1018.6 |
| 20260502113605 | 4 | 162 | 0.0 | 0.0 | 0.00 | 0.00 | 0.00 | 51 | 1018.4 |
| 20260502113103 | 4 | 125 | 0.0 | 0.0 | 0.00 | 0.00 | 0.00 | 51 | 1018.5 |
| 20260502112600 | 4 | 125 | 0.0 | 0.0 | 0.00 | 0.00 | 0.00 | 50 | 1018.6 |
| 20260502112058 | 5 | 126 | 0.0 | 0.0 | 0.00 | 0.00 | 0.00 | 48 | 1018.5 |
| 20260502111555 | 5 | 121 | 0.0 | 0.0 | 0.00 | 0.00 | 0.00 | 49 | 1018.5 |
| 20260502111052 | 5 | 120 | 0.0 | 0.0 | 0.00 | 0.00 | 0.00 | 47 | 1018.5 |
| 20260502110550 | 5 | 129 | 0.0 | 0.0 | 0.00 | 0.00 | 0.00 | 46 | 1018.5 |
| 20260502110047 | 6 | 136 | 0.0 | 0.0 | 0.00 | 0.00 | 0.00 | 46 | 1018.5 |
| 20260502105545 | 6 | 135 | 0.0 | 0.0 | 0.00 | 0.00 | 0.00 | 45 | 1018.6 |
| 20260502105042 | 6 | 142 | 0.0 | 0.0 | 0.00 | 0.00 | 0.00 | 44 | 1018.7 |
| 20260502104539 | 6 | 130 | 0.0 | 0.0 | 0.00 | 0.00 | 0.00 | 44 | 1018.5 |
| 20260502104037 | 6 | 134 | 0.0 | 0.0 | 0.00 | 0.00 | 0.00 | 44 | 1018.6 |
| 20260502103534 | 6 | 135 | 0.0 | 0.0 | 0.00 | 0.00 | 0.00 | 45 | 1018.4 |
| 20260502103032 | 7 | 139 | 0.0 | 0.0 | 0.00 | 0.00 | 0.00 | 43 | 1018.4 |
| 20260502102528 | 6 | 188 | 0.0 | 1.6 | 0.00 | 0.00 | 0.00 | 44 | 1018.5 |
| 20260502102025 | 7 | 133 | 0.0 | 0.0 | 0.00 | 0.00 | 0.00 | 43 | 1018.4 |
| 20260502101523 | 6 | 139 | 0.0 | 0.0 | 0.00 | 0.00 | 0.00 | 44 | 1018.6 |
| 20260502101021 | 6 | 124 | 0.0 | 0.0 | 0.00 | 0.00 | 0.00 | 44 | 1018.5 |
| 20260502100520 | 7 | 127 | 0.0 | 0.0 | 0.00 | 0.00 | 0.00 | 43 | 1018.6 |
| 20260502091454 | 7 | 116 | 0.0 | 0.0 | 0.00 | 0.00 | 0.00 | 42 | 1018.6 |
| 20260502090951 | 7 | 134 | 1.6 | 1.6 | 0.00 | 0.00 | 0.00 | 41 | 1018.5 |
| 20260502090448 | 7 | 143 | 1.6 | 1.6 | 0.00 | 0.00 | 0.00 | 40 | 1018.5 |
| 20260502071343 | 8 | 123 | 0.0 | 0.0 | 0.00 | 0.00 | 0.00 | 37 | 1019.0 |
| 20260502070841 | 8 | 123 | 0.0 | 0.0 | 0.00 | 0.00 | 0.00 | 36 | 1018.8 |
| 20260502070338 | 8 | 140 | 1.6 | 1.6 | 0.00 | 0.00 | 0.00 | 36 | 1018.8 |
| 20260502065837 | 8 | 121 | 0.0 | 0.0 | 0.00 | 0.00 | 0.00 | 36 | 1018.8 |
| 20260502065335 | 8 | 120 | 0.0 | 1.6 | 0.00 | 0.00 | 0.00 | 36 | 1018.7 |
| 20260502064832 | 9 | 101 | 0.0 | 0.0 | 0.00 | 0.00 | 0.00 | 35 | 1018.7 |
| 20260502064330 | 8 | 65 | 1.6 | 1.6 | 0.00 | 0.00 | 0.00 | 34 | 1018.8 |
| 20260502063827 | 9 | 99 | 1.6 | 1.6 | 0.00 | 0.00 | 0.00 | 34 | 1018.6 |
| 20260502063325 | 9 | 149 | 1.6 | 1.6 | 0.00 | 0.00 | 0.00 | 33 | 1018.8 |
| 20260502062822 | 10 | 123 | 0.0 | 0.0 | 0.00 | 0.00 | 0.00 | 33 | 1018.8 |
| 20260502062319 | 10 | 158 | 1.6 | 3.2 | 0.00 | 0.00 | 0.00 | 32 | 1018.8 |
| 20260502061818 | 10 | 185 | 3.2 | 3.2 | 0.00 | 0.00 | 0.00 | 32 | 1019.0 |
| 20260502061315 | 11 | 179 | 3.2 | 3.2 | 0.00 | 0.00 | 0.00 | 31 | 1018.7 |
| 20260502060811 | 11 | 100 | 1.6 | 1.6 | 0.00 | 0.00 | 0.00 | 30 | 1018.7 |
| 20260502060306 | 12 | 146 | 1.6 | 1.6 | 0.00 | 0.00 | 0.00 | 29 | 1018.7 |
| 20260502055804 | 11 | 210 | 3.2 | 3.2 | 0.00 | 0.00 | 0.00 | 31 | 1018.5 |
| 20260502055305 | 11 | 160 | 3.2 | 3.2 | 0.00 | 0.00 | 0.00 | 30 | 1018.5 |
| 20260502054801 | 12 | 143 | 1.6 | 1.6 | 0.00 | 0.00 | 0.00 | 29 | 1018.8 |
| 20260502054258 | 13 | 103 | 0.0 | 1.6 | 0.00 | 0.00 | 0.00 | 28 | 1018.7 |
| 20260502053756 | 13 | 93 | 3.2 | 3.2 | 0.00 | 0.00 | 0.00 | 28 | 1018.7 |
| 20260502053253 | 13 | 74 | 4.8 | 4.8 | 0.00 | 0.00 | 0.00 | 27 | 1018.4 |
| 20260502052750 | 13 | 43 | 6.4 | 6.4 | 0.00 | 0.00 | 0.00 | 26 | 1018.4 |
| 20260502052249 | 13 | 77 | 1.6 | 3.2 | 0.00 | 0.00 | 0.00 | 27 | 1018.5 |
| 20260502051746 | 14 | 63 | 4.8 | 6.4 | 0.00 | 0.00 | 0.00 | 26 | 1018.5 |
| 20260502051244 | 14 | 44 | 1.6 | 3.2 | 0.00 | 0.00 | 0.00 | 26 | 1018.4 |
| 20260502050740 | 14 | 27 | 3.2 | 3.2 | 0.00 | 0.00 | 0.00 | 26 | 1018.2 |
| 20260502050236 | 14 | 53 | 1.6 | 1.6 | 0.00 | 0.00 | 0.00 | 27 | 1018.4 |
| 20260502045734 | 13 | 45 | 6.4 | 6.4 | 0.00 | 0.00 | 0.00 | 27 | 1018.1 |
| 20260502045231 | 14 | 103 | 0.0 | 0.0 | 0.00 | 0.00 | 0.00 | 27 | 1018.1 |
| 20260502044728 | 14 | 90 | 0.0 | 0.0 | 0.00 | 0.00 | 0.00 | 27 | 1017.9 |
| 20260502044223 | 14 | 96 | 1.6 | 1.6 | 0.00 | 0.00 | 0.00 | 26 | 1017.9 |
| 20260502043721 | 15 | 106 | 3.2 | 3.2 | 0.00 | 0.00 | 0.00 | 26 | 1018.1 |
| 20260502043219 | 15 | 67 | 3.2 | 3.2 | 0.00 | 0.00 | 0.00 | 26 | 1018.0 |
| 20260502042718 | 15 | 97 | 1.6 | 1.6 | 0.00 | 0.00 | 0.00 | 26 | 1017.9 |
| 20260502042215 | 15 | 91 | 1.6 | 1.6 | 0.00 | 0.00 | 0.00 | 26 | 1018.0 |
| 20260502041713 | 15 | 95 | 3.2 | 3.2 | 0.00 | 0.00 | 0.00 | 26 | 1017.7 |
| 20260502041210 | 15 | 97 | 3.2 | 4.8 | 0.00 | 0.00 | 0.00 | 25 | 1018.0 |
| 20260502040707 | 15 | 62 | 4.8 | 6.4 | 0.00 | 0.00 | 0.00 | 25 | 1017.7 |
| 20260502040204 | 15 | 62 | 4.8 | 6.4 | 0.00 | 0.00 | 0.00 | 25 | 1017.4 |
| 20260502035700 | 15 | 46 | 4.8 | 9.7 | 0.00 | 0.00 | 0.00 | 25 | 1017.5 |
| 20260502035157 | 16 | 104 | 1.6 | 1.6 | 0.00 | 0.00 | 0.00 | 25 | 1017.5 |
| 20260502034654 | 16 | 110 | 1.6 | 3.2 | 0.00 | 0.00 | 0.00 | 25 | 1017.5 |
| 20260502034153 | 16 | 68 | 3.2 | 4.8 | 0.00 | 0.00 | 0.00 | 25 | 1017.4 |
| 20260502033650 | 16 | 73 | 3.2 | 4.8 | 0.00 | 0.00 | 0.00 | 25 | 1017.2 |
| 20260502033148 | 16 | 66 | 3.2 | 3.2 | 0.00 | 0.00 | 0.00 | 25 | 1017.3 |
| 20260502032644 | 16 | 115 | 4.8 | 6.4 | 0.00 | 0.00 | 0.00 | 25 | 1017.0 |
| 20260502032140 | 16 | 239 | 4.8 | 6.4 | 0.00 | 0.00 | 0.00 | 25 | 1017.1 |
| 20260502031638 | 16 | 54 | 3.2 | 4.8 | 0.00 | 0.00 | 0.00 | 25 | 1016.7 |
| 20260502031136 | 16 | 104 | 1.6 | 3.2 | 0.00 | 0.00 | 0.00 | 24 | 1017.1 |
| 20260502030635 | 16 | 339 | 9.7 | 14.5 | 0.00 | 0.00 | 0.00 | 24 | 1016.7 |
| 20260502030132 | 16 | 108 | 3.2 | 4.8 | 0.00 | 0.00 | 0.00 | 24 | 1016.6 |
| 20260502025629 | 16 | 356 | 4.8 | 9.7 | 0.00 | 0.00 | 0.00 | 24 | 1016.6 |
| 20260502025127 | 17 | 14 | 6.4 | 9.7 | 0.00 | 0.00 | 0.00 | 24 | 1016.5 |
| 20260502024625 | 17 | 356 | 8.0 | 11.3 | 0.00 | 0.00 | 0.00 | 24 | 1016.4 |
| 20260502024123 | 17 | 84 | 4.8 | 4.8 | 0.00 | 0.00 | 0.00 | 24 | 1016.4 |
| 20260502023621 | 17 | 16 | 19.3 | 27.4 | 0.00 | 0.00 | 0.00 | 23 | 1016.4 |
| 20260502023117 | 18 | 51 | 6.4 | 9.7 | 0.00 | 0.00 | 0.00 | 21 | 1016.0 |
| 20260502022614 | 18 | 357 | 9.7 | 16.1 | 0.00 | 0.00 | 0.00 | 21 | 1016.1 |
| 20260502022111 | 18 | 37 | 6.4 | 11.3 | 0.00 | 0.00 | 0.00 | 21 | 1015.7 |
| 20260502021609 | 18 | 331 | 11.3 | 12.9 | 0.00 | 0.00 | 0.00 | 21 | 1015.8 |
| 20260502021105 | 18 | 81 | 3.2 | 6.4 | 0.00 | 0.00 | 0.00 | 21 | 1015.5 |
| 20260502020603 | 18 | 123 | 3.2 | 9.7 | 0.00 | 0.00 | 0.00 | 21 | 1015.4 |
| 20260502020100 | 18 | 318 | 3.2 | 3.2 | 0.00 | 0.00 | 0.00 | 21 | 1015.5 |
| 20260502015558 | 19 | 35 | 3.2 | 9.7 | 0.00 | 0.00 | 0.00 | 21 | 1015.3 |
| 20260502015054 | 20 | 83 | 3.2 | 4.8 | 0.00 | 0.00 | 0.00 | 21 | 1015.3 |
| 20260502014551 | 20 | 7 | 6.4 | 9.7 | 0.00 | 0.00 | 0.00 | 21 | 1015.3 |
| 20260502014048 | 20 | 108 | 0.0 | 0.0 | 0.00 | 0.00 | 0.00 | 21 | 1015.3 |
| 20260502013543 | 20 | 36 | 3.2 | 3.2 | 0.00 | 0.00 | 0.00 | 20 | 1015.3 |
| 20260502013040 | 20 | 13 | 1.6 | 3.2 | 0.00 | 0.00 | 0.00 | 20 | 1015.2 |
| 20260502012537 | 19 | 98 | 1.6 | 3.2 | 0.00 | 0.00 | 0.00 | 21 | 1015.2 |
| 20260502012035 | 19 | 59 | 1.6 | 3.2 | 0.00 | 0.00 | 0.00 | 21 | 1015.2 |
| 20260502011531 | 19 | 341 | 3.2 | 6.4 | 0.00 | 0.00 | 0.00 | 21 | 1015.2 |
| 20260502011027 | 19 | 108 | 1.6 | 1.6 | 0.00 | 0.00 | 0.00 | 21 | 1015.1 |
| 20260502010525 | 19 | 109 | 0.0 | 0.0 | 0.00 | 0.00 | 0.00 | 21 | 1014.9 |
| 20260502010021 | 19 | 105 | 0.0 | 1.6 | 0.00 | 0.00 | 0.00 | 21 | 1015.2 |
| 20260502005519 | 19 | 105 | 0.0 | 1.6 | 0.00 | 0.00 | 0.00 | 21 | 1014.9 |
| 20260502005017 | 19 | 101 | 1.6 | 1.6 | 0.00 | 0.00 | 0.00 | 21 | 1014.8 |
| 20260502004512 | 19 | 50 | 1.6 | 3.2 | 0.00 | 0.00 | 0.00 | 21 | 1014.8 |
| 20260502004009 | 19 | 285 | 6.4 | 9.7 | 0.00 | 0.00 | 0.00 | 21 | 1014.6 |
| 20260502003507 | 20 | 65 | 3.2 | 4.8 | 0.00 | 0.00 | 0.00 | 21 | 1014.7 |
| 20260502003003 | 20 | 353 | 6.4 | 9.7 | 0.00 | 0.00 | 0.00 | 20 | 1014.8 |
| 20260502002500 | 20 | 2 | 4.8 | 6.4 | 0.00 | 0.00 | 0.00 | 20 | 1014.8 |
| 20260502001958 | 20 | 100 | 3.2 | 3.2 | 0.00 | 0.00 | 0.00 | 21 | 1015.1 |
| 20260502001455 | 20 | 87 | 3.2 | 4.8 | 0.00 | 0.00 | 0.00 | 20 | 1014.8 |
| 20260502000953 | 20 | 261 | 11.3 | 12.9 | 0.00 | 0.00 | 0.00 | 20 | 1014.9 |
| 20260502000454 | 20 | 302 | 11.3 | 20.9 | 0.00 | 0.00 | 0.00 | 20 | 1014.8 |
| 20260501235947 | 20 | 293 | 8.0 | 11.3 | 0.00 | 0.00 | 0.00 | 20 | 1014.8 |
| 20260501235442 | 20 | 176 | 1.6 | 3.2 | 0.00 | 0.00 | 0.00 | 20 | 1014.6 |
| 20260501234938 | 20 | 148 | 4.8 | 4.8 | 0.00 | 0.00 | 0.00 | 21 | 1014.8 |
| 20260501234435 | 20 | 29 | 4.8 | 6.4 | 0.00 | 0.00 | 0.00 | 21 | 1014.8 |
| 20260501233934 | 20 | 99 | 1.6 | 1.6 | 0.00 | 0.00 | 0.00 | 21 | 1014.6 |
| 20260501233431 | 20 | 99 | 3.2 | 3.2 | 0.00 | 0.00 | 0.00 | 21 | 1014.8 |
| 20260501232926 | 20 | 260 | 3.2 | 3.2 | 0.00 | 0.00 | 0.00 | 20 | 1014.8 |
| 20260501232424 | 20 | 146 | 1.6 | 1.6 | 0.00 | 0.00 | 0.00 | 20 | 1014.8 |
| 20260501231921 | 20 | 108 | 0.0 | 0.0 | 0.00 | 0.00 | 0.00 | 21 | 1015.1 |
| 20260501231420 | 20 | 110 | 0.0 | 1.6 | 0.00 | 0.00 | 0.00 | 21 | 1014.9 |
| 20260501230917 | 20 | 103 | 3.2 | 6.4 | 0.00 | 0.00 | 0.00 | 21 | 1014.9 |
| 20260501230416 | 20 | 119 | 1.6 | 3.2 | 0.00 | 0.00 | 0.00 | 20 | 1014.7 |
| 20260501225913 | 20 | 208 | 6.4 | 6.4 | 0.00 | 0.00 | 0.00 | 20 | 1014.7 |
| 20260501225410 | 20 | 217 | 12.9 | 14.5 | 0.00 | 0.00 | 0.00 | 20 | 1014.9 |
| 20260501224906 | 20 | 163 | 1.6 | 3.2 | 0.00 | 0.00 | 0.00 | 21 | 1014.9 |
| 20260501224404 | 20 | 123 | 1.6 | 3.2 | 0.00 | 0.00 | 0.00 | 21 | 1015.1 |
| 20260501223900 | 19 | 336 | 3.2 | 3.2 | 0.00 | 0.00 | 0.00 | 21 | 1015.2 |
| 20260501223356 | 20 | 75 | 3.2 | 4.8 | 0.00 | 0.00 | 0.00 | 21 | 1015.2 |
| 20260501222852 | 20 | 11 | 3.2 | 3.2 | 0.00 | 0.00 | 0.00 | 21 | 1015.3 |
| 20260501222350 | 20 | 31 | 3.2 | 3.2 | 0.00 | 0.00 | 0.00 | 21 | 1015.1 |
| 20260501221846 | 20 | 151 | 1.6 | 1.6 | 0.00 | 0.00 | 0.00 | 21 | 1015.1 |
| 20260501221343 | 20 | 240 | 3.2 | 3.2 | 0.00 | 0.00 | 0.00 | 21 | 1015.3 |
| 20260501220841 | 19 | 108 | 1.6 | 1.6 | 0.00 | 0.00 | 0.00 | 21 | 1015.3 |
| 20260501220338 | 19 | 352 | 6.4 | 6.4 | 0.00 | 0.00 | 0.00 | 21 | 1015.3 |
| 20260501215835 | 19 | 352 | 4.8 | 6.4 | 0.00 | 0.00 | 0.00 | 22 | 1015.5 |
| 20260501215331 | 19 | 331 | 4.8 | 4.8 | 0.00 | 0.00 | 0.00 | 21 | 1015.7 |
| 20260501214827 | 20 | 284 | 6.4 | 9.7 | 0.00 | 0.00 | 0.00 | 21 | 1015.3 |
| 20260501214322 | 20 | 350 | 11.3 | 12.9 | 0.00 | 0.00 | 0.00 | 21 | 1015.4 |
| 20260501213818 | 21 | 286 | 3.2 | 4.8 | 0.00 | 0.00 | 0.00 | 20 | 1015.8 |
| 20260501213315 | 20 | 328 | 12.9 | 16.1 | 0.00 | 0.00 | 0.00 | 21 | 1015.7 |
| 20260501212811 | 20 | 258 | 8.0 | 11.3 | 0.00 | 0.00 | 0.00 | 20 | 1015.8 |
| 20260501212307 | 20 | 348 | 8.0 | 9.7 | 0.00 | 0.00 | 0.00 | 21 | 1015.7 |
| 20260501211805 | 20 | 274 | 12.9 | 20.9 | 0.00 | 0.00 | 0.00 | 20 | 1015.8 |
| 20260501211302 | 21 | 279 | 4.8 | 4.8 | 0.00 | 0.00 | 0.00 | 19 | 1015.8 |
| 20260501210759 | 19 | 8 | 6.4 | 6.4 | 0.00 | 0.00 | 0.00 | 21 | 1015.8 |
| 20260501210255 | 19 | 91 | 8.0 | 9.7 | 0.00 | 0.00 | 0.00 | 21 | 1015.5 |
| 20260501205751 | 20 | 227 | 14.5 | 17.7 | 0.00 | 0.00 | 0.00 | 21 | 1015.9 |
| 20260501205249 | 19 | 240 | 9.7 | 11.3 | 0.00 | 0.00 | 0.00 | 21 | 1016.0 |
| 20260501204746 | 19 | 255 | 12.9 | 17.7 | 0.00 | 0.00 | 0.00 | 21 | 1015.9 |
| 20260501204242 | 20 | 66 | 4.8 | 4.8 | 0.00 | 0.00 | 0.00 | 20 | 1015.9 |
| 20260501203739 | 21 | 248 | 9.7 | 14.5 | 0.00 | 0.00 | 0.00 | 20 | 1015.9 |
| 20260501203236 | 20 | 209 | 12.9 | 14.5 | 0.00 | 0.00 | 0.00 | 19 | 1015.9 |
| 20260501202733 | 20 | 107 | 6.4 | 9.7 | 0.00 | 0.00 | 0.00 | 20 | 1015.9 |
| 20260501202230 | 21 | 340 | 3.2 | 4.8 | 0.00 | 0.00 | 0.00 | 19 | 1015.8 |
| 20260501201727 | 20 | 327 | 4.8 | 6.4 | 0.00 | 0.00 | 0.00 | 19 | 1016.0 |
| 20260501201223 | 21 | 44 | 8.0 | 9.7 | 0.00 | 0.00 | 0.00 | 20 | 1015.8 |
| 20260501200720 | 20 | 288 | 9.7 | 14.5 | 0.00 | 0.00 | 0.00 | 19 | 1015.8 |
| 20260501200218 | 20 | 342 | 9.7 | 12.9 | 0.00 | 0.00 | 0.00 | 19 | 1016.0 |
| 20260501195715 | 19 | 1 | 4.8 | 12.9 | 0.00 | 0.00 | 0.00 | 21 | 1016.1 |
| 20260501195211 | 18 | 35 | 4.8 | 4.8 | 0.00 | 0.00 | 0.00 | 21 | 1015.9 |
| 20260501194707 | 19 | 86 | 3.2 | 3.2 | 0.00 | 0.00 | 0.00 | 20 | 1016.1 |
| 20260501194202 | 18 | 321 | 6.4 | 9.7 | 0.00 | 0.00 | 0.00 | 21 | 1016.1 |
| 20260501193659 | 19 | 342 | 9.7 | 11.3 | 0.00 | 0.00 | 0.00 | 21 | 1016.2 |
| 20260501193158 | 20 | 40 | 1.6 | 1.6 | 0.00 | 0.00 | 0.00 | 22 | 1016.5 |
| 20260501192655 | 20 | 28 | 3.2 | 6.4 | 0.00 | 0.00 | 0.00 | 21 | 1016.1 |
| 20260501192152 | 20 | 226 | 14.5 | 16.1 | 0.00 | 0.00 | 0.00 | 21 | 1016.1 |
| 20260501191649 | 21 | 168 | 6.4 | 9.7 | 0.00 | 0.00 | 0.00 | 21 | 1016.5 |
| 20260501191147 | 19 | 102 | 1.6 | 1.6 | 0.00 | 0.00 | 0.00 | 22 | 1016.5 |
| 20260501190643 | 18 | 81 | 8.0 | 9.7 | 0.00 | 0.00 | 0.00 | 22 | 1016.5 |
| 20260501190138 | 18 | 109 | 0.0 | 0.0 | 0.00 | 0.00 | 0.00 | 22 | 1016.4 |
| 20260501185634 | 18 | 94 | 3.2 | 4.8 | 0.00 | 0.00 | 0.00 | 23 | 1016.4 |
| 20260501185130 | 18 | 96 | 1.6 | 1.6 | 0.00 | 0.00 | 0.00 | 23 | 1016.5 |
| 20260501184627 | 18 | 22 | 3.2 | 3.2 | 0.00 | 0.00 | 0.00 | 23 | 1016.6 |
| 20260501184121 | 19 | 89 | 1.6 | 1.6 | 0.00 | 0.00 | 0.00 | 23 | 1017.0 |
| 20260501183618 | 18 | 166 | 3.2 | 4.8 | 0.00 | 0.00 | 0.00 | 22 | 1016.6 |
| 20260501183115 | 20 | 227 | 8.0 | 9.7 | 0.00 | 0.00 | 0.00 | 22 | 1016.7 |
| 20260501182611 | 19 | 269 | 4.8 | 9.7 | 0.00 | 0.00 | 0.00 | 22 | 1016.5 |
| 20260501182108 | 20 | 103 | 3.2 | 4.8 | 0.00 | 0.00 | 0.00 | 22 | 1016.7 |
| 20260501181605 | 19 | 299 | 3.2 | 4.8 | 0.00 | 0.00 | 0.00 | 22 | 1016.7 |
| 20260501181102 | 20 | 78 | 6.4 | 9.7 | 0.00 | 0.00 | 0.00 | 22 | 1016.8 |
| 20260501180600 | 20 | 98 | 1.6 | 1.6 | 0.00 | 0.00 | 0.00 | 22 | 1017.0 |
| 20260501180055 | 20 | 80 | 4.8 | 4.8 | 0.00 | 0.00 | 0.00 | 22 | 1017.0 |
| 20260501175553 | 20 | 108 | 3.2 | 3.2 | 0.00 | 0.00 | 0.00 | 22 | 1017.1 |
| 20260501175050 | 19 | 69 | 3.2 | 3.2 | 0.00 | 0.00 | 0.00 | 23 | 1017.0 |
| 20260501174546 | 18 | 54 | 3.2 | 3.2 | 0.00 | 0.00 | 0.00 | 23 | 1017.1 |
| 20260501174044 | 17 | 342 | 3.2 | 4.8 | 0.00 | 0.00 | 0.00 | 24 | 1017.1 |
| 20260501173541 | 18 | 43 | 6.4 | 6.4 | 0.00 | 0.00 | 0.00 | 24 | 1017.0 |
| 20260501173038 | 18 | 57 | 4.8 | 6.4 | 0.00 | 0.00 | 0.00 | 24 | 1016.8 |
| 20260501172533 | 19 | 106 | 3.2 | 4.8 | 0.00 | 0.00 | 0.00 | 23 | 1016.8 |
| 20260501172029 | 18 | 90 | 1.6 | 3.2 | 0.00 | 0.00 | 0.00 | 24 | 1016.8 |
| 20260501171526 | 17 | 350 | 6.4 | 9.7 | 0.00 | 0.00 | 0.00 | 24 | 1017.0 |
| 20260501171022 | 18 | 57 | 8.0 | 11.3 | 0.00 | 0.00 | 0.00 | 23 | 1017.1 |
| 20260501170519 | 17 | 105 | 3.2 | 4.8 | 0.00 | 0.00 | 0.00 | 24 | 1017.1 |
| 20260501170016 | 17 | 116 | 4.8 | 4.8 | 0.00 | 0.00 | 0.00 | 24 | 1017.0 |
| 20260501165514 | 17 | 61 | 3.2 | 4.8 | 0.00 | 0.00 | 0.00 | 24 | 1017.2 |
| 20260501165012 | 17 | 25 | 6.4 | 9.7 | 0.00 | 0.00 | 0.00 | 24 | 1017.0 |
| 20260501164509 | 16 | 33 | 6.4 | 11.3 | 0.00 | 0.00 | 0.00 | 25 | 1016.8 |
| 20260501164006 | 17 | 56 | 9.7 | 11.3 | 0.00 | 0.00 | 0.00 | 23 | 1016.8 |
| 20260501163502 | 18 | 70 | 9.7 | 12.9 | 0.00 | 0.00 | 0.00 | 24 | 1016.7 |
| 20260501162958 | 17 | 97 | 3.2 | 3.2 | 0.00 | 0.00 | 0.00 | 24 | 1016.7 |
| 20260501162455 | 16 | 112 | 9.7 | 12.9 | 0.00 | 0.00 | 0.00 | 24 | 1016.7 |
| 20260501161952 | 16 | 94 | 3.2 | 4.8 | 0.00 | 0.00 | 0.00 | 26 | 1016.8 |
| 20260501161449 | 16 | 140 | 1.6 | 3.2 | 0.00 | 0.00 | 0.00 | 25 | 1016.6 |
| 20260501160946 | 16 | 63 | 4.8 | 4.8 | 0.00 | 0.00 | 0.00 | 25 | 1016.7 |
| 20260501160442 | 16 | 100 | 0.0 | 1.6 | 0.00 | 0.00 | 0.00 | 27 | 1016.6 |
| 20260501155940 | 16 | 61 | 6.4 | 9.7 | 0.00 | 0.00 | 0.00 | 27 | 1016.5 |
| 20260501155437 | 15 | 72 | 4.8 | 4.8 | 0.00 | 0.00 | 0.00 | 27 | 1016.5 |
| 20260501154933 | 16 | 49 | 3.2 | 4.8 | 0.00 | 0.00 | 0.00 | 27 | 1016.5 |
| 20260501154431 | 15 | 103 | 1.6 | 1.6 | 0.00 | 0.00 | 0.00 | 26 | 1016.2 |
| 20260501153927 | 15 | 104 | 4.8 | 4.8 | 0.00 | 0.00 | 0.00 | 28 | 1016.4 |
| 20260501153426 | 16 | 48 | 1.6 | 4.8 | 0.00 | 0.00 | 0.00 | 28 | 1016.2 |
| 20260501152921 | 15 | 101 | 1.6 | 1.6 | 0.00 | 0.00 | 0.00 | 29 | 1016.4 |
| 20260501152418 | 15 | 73 | 3.2 | 4.8 | 0.00 | 0.00 | 0.00 | 29 | 1016.4 |
| 20260501151916 | 16 | 85 | 4.8 | 4.8 | 0.00 | 0.00 | 0.00 | 27 | 1016.2 |
| 20260501151412 | 15 | 116 | 0.0 | 1.6 | 0.00 | 0.00 | 0.00 | 28 | 1016.5 |
| 20260501150909 | 15 | 95 | 0.0 | 1.6 | 0.00 | 0.00 | 0.00 | 28 | 1016.1 |
| 20260501150404 | 15 | 147 | 3.2 | 3.2 | 0.00 | 0.00 | 0.00 | 28 | 1016.4 |
| 20260501145901 | 15 | 129 | 0.0 | 0.0 | 0.00 | 0.00 | 0.00 | 28 | 1016.1 |
| 20260501145358 | 13 | 89 | 1.6 | 3.2 | 0.00 | 0.00 | 0.00 | 28 | 1016.2 |
| 20260501144855 | 13 | 102 | 1.6 | 3.2 | 0.00 | 0.00 | 0.00 | 28 | 1016.0 |
| 20260501144350 | 13 | 106 | 0.0 | 0.0 | 0.00 | 0.00 | 0.00 | 28 | 1016.0 |
| 20260501143847 | 13 | 121 | 0.0 | 0.0 | 0.00 | 0.00 | 0.00 | 28 | 1016.0 |
| 20260501143344 | 12 | 119 | 0.0 | 0.0 | 0.00 | 0.00 | 0.00 | 28 | 1015.9 |
| 20260501142840 | 12 | 138 | 0.0 | 0.0 | 0.00 | 0.00 | 0.00 | 29 | 1016.0 |
| 20260501142337 | 12 | 130 | 0.0 | 0.0 | 0.00 | 0.00 | 0.00 | 31 | 1015.8 |
| 20260501141833 | 12 | 106 | 0.0 | 0.0 | 0.00 | 0.00 | 0.00 | 33 | 1016.1 |